RH
85 87 87 86 84 82 80 79 80 82 84 83 83 80 78 77 78 83 89 91 90 88 85 83 83 83 83 83 81 80 79 77 76 75 75 75 75 75 76 77 78 78 78 78 78 78 78 78 78 78 78 80 86 89 89 87 85 84 84 84 84 84 84 84 84 83 83 81 78
82 84 85 84 81 78 76 75 78 82 85 86 87 83 79 75 77 82 88 91 90 88 86 84 84 84 85 86 85 84 84 83 80 78 78 78 79 80 81 81 80 79 78 77 76 76 76 76 76 77 80 89 92 91 89 86 85 85 86 86 86 85 84 84 84 83 83 81 78
82 82 82 81 77 75 74 74 75 80 85 89 90 87 82 77 79 84 89 91 89 86 84 83 83 83 84 86 85 84 84 87 85 84 84 85 85 85 83 81 80 78 77 76 75 75 76 77 79 82 85 91 92 91 89 87 86 86 86 86 85 85 84 84 84 84 82 80 77
80 80 80 77 74 73 72 72 74 78 84 90 92 92 89 85 85 87 88 88 86 85 83 82 81 82 84 86 86 85 86 89 91 90 90 89 87 85 82 80 78 77 76 76 76 75 76 79 83 85 85 86 86 86 86 87 86 85 85 84 85 85 85 85 84 82 80 78 76
76 76 76 74 72 70 71 72 77 84 89 89 90 91 91 91 91 89 88 87 85 83 82 81 81 82 83 85 88 90 91 92 92 92 90 87 85 83 81 79 78 77 77 78 79 77 77 79 86 87 86 86 85 84 82 83 84 84 84 85 86 86 85 84 83 81 79 76 74
76 76 75 73 71 70 72 75 80 86 90 91 92 92 91 92 91 90 88 86 84 82 81 80 80 80 81 84 89 92 93 93 90 86 82 81 81 81 80 78 77 78 79 81 81 79 78 78 84 87 87 85 83 81 81 83 84 86 86 86 85 84 82 81 80 78 76 72 69
77 76 75 72 72 73 76 79 81 84 86 88 89 90 89 89 89 88 87 86 85 83 82 82 81 81 81 83 87 90 91 89 84 80 77 77 78 79 79 78 78 80 82 83 83 81 80 79 81 84 86 87 84 84 85 88 88 86 84 81 78 77 77 77 75 72 69 65 63
78 76 75 71 72 76 79 80 81 83 85 86 86 85 84 82 82 82 82 83 84 85 85 84 83 83 83 83 84 84 84 84 83 82 80 79 80 80 81 81 81 82 83 84 84 84 83 83 81 81 83 85 84 85 86 88 88 85 82 78 73 70 69 69 67 65 63 61 60
77 77 75 73 72 73 76 79 81 83 85 89 87 84 82 81 80 81 81 82 84 85 85 85 83 83 82 82 81 81 82 85 86 85 84 82 82 82 83 86 87 86 85 85 86 87 87 86 83 82 82 82 81 81 81 83 84 84 81 76 70 65 63 63 62 61 60 59 58
75 75 75 74 72 73 76 79 80 81 83 85 84 83 83 84 86 87 87 85 85 85 84 83 83 82 82 80 80 82 84 87 86 85 84 82 83 84 85 88 90 89 88 87 87 88 87 87 86 85 84 84 83 81 79 79 80 80 77 72 67 63 61 60 60 60 59 58 56
70 71 71 71 70 73 77 79 81 81 81 81 80 82 85 89 91 91 90 87 85 83 83 83 84 84 83 81 81 82 83 84 84 83 82 82 83 84 86 89 90 91 90 89 88 88 87 86 85 84 83 82 81 80 79 79 79 78 74 69 65 63 61 60 59 58 56 54 53
67 67 67 67 68 71 74 76 80 82 83 83 84 85 87 89 91 91 90 88 86 84 83 83 86 86 86 83 82 81 81 82 81 81 81 83 84 85 86 89 90 91 91 92 90 89 86 84 82 81 81 80 80 80 80 79 77 74 70 67 64 62 60 58 55 53 51 50 50
67 66 66 65 67 69 71 72 74 76 78 81 84 86 89 91 91 91 90 89 88 85 84 84 86 88 87 86 85 83 83 82 82 84 85 85 83 82 83 86 89 90 90 91 89 88 86 86 84 83 82 82 81 80 79 77 75 72 70 68 65 60 56 53 50 49 47 47 46
69 68 67 65 65 67 69 71 72 72 73 76 80 84 89 91 90 89 88 87 87 85 83 83 86 88 88 88 88 87 86 84 84 85 87 87 84 83 82 83 86 87 87 86 85 85 86 87 87 86 84 82 80 78 76 75 73 71 69 65 59 54 50 47 45 44 43 43 43
70 69 67 66 64 64 65 67 70 72 74 76 80 85 88 89 88 87 85 83 81 79 79 80 84 86 86 86 86 87 87 85 84 84 85 86 84 83 83 83 84 84 83 83 83 82 82 83 83 83 81 79 77 75 73 71 69 66 62 57 52 47 44 42 41 41 41 41 40
71 70 69 67 65 63 61 61 64 67 71 74 79 83 85 85 85 84 82 79 76 75 74 75 79 82 83 83 83 84 85 85 85 84 84 84 84 83 83 83 83 83 82 82 81 79 78 77 75 75 74 75 74 71 69 65 61 57 53 48 44 41 40 39 39 39 39 39 39
72 71 70 69 67 64 62 60 60 61 64 67 72 76 79 79 80 81 80 78 76 75 73 73 75 78 81 82 82 82 83 84 86 87 87 86 85 84 84 83 82 81 80 79 77 75 72 70 69 69 70 71 69 66 63 58 52 48 44 41 39 37 37 37 37 38 38 38 38
71 70 69 68 66 64 62 60 59 59 59 61 65 69 72 74 76 77 78 78 77 76 75 75 74 75 76 78 79 80 83 85 88 89 89 88 86 85 83 83 82 81 79 76 73 70 69 67 68 68 68 67 64 59 54 49 45 41 39 37 36 36 36 36 37 38 38 38 37
65 64 64 63 62 61 60 59 58 57 57 58 60 63 66 69 71 73 74 75 76 76 77 77 76 74 72 70 71 73 76 79 81 82 82 81 80 78 77 76 76 75 73 71 68 67 66 67 67 66 63 60 56 51 47 43 40 38 36 35 35 35 36 37 37 37 37 36 36
57 57 57 57 57 56 56 56 55 55 55 56 57 59 61 64 66 68 69 71 72 73 75 75 75 74 72 69 66 64 64 64 64 65 65 65 65 65 64 65 65 65 64 64 64 64 64 64 62 60 56 52 48 44 41 39 37 36 36 35 36 36 36 36 36 36 35 35 34
53 52 52 52 52 53 53 53 53 53 53 54 55 56 58 59 60 62 64 65 67 69 70 72 72 72 71 69 66 63 59 57 55 54 54 55 55 56 57 58 59 60 60 61 61 61 61 59 57 53 50 46 43 40 39 37 36 36 36 36 36 36 36 35 35 35 34 34 33
51 51 51 51 51 51 51 51 51 52 52 53 54 54 55 55 56 57 59 61 63 65 66 67 68 68 68 67 65 63 60 57 54 53 52 52 54 55 57 58 59 60 61 61 61 60 58 55 52 49 45 42 40 38 37 36 36 36 36 36 35 35 35 35 34 34 33 32 32
52 52 52 52 52 52 52 52 52 52 52 52 53 53 54 54 54 55 56 58 59 61 62 63 64 65 65 64 63 62 60 57 55 54 54 54 56 58 59 61 61 62 61 61 60 57 55 52 48 45 42 40 39 38 37 37 36 36 36 36 35 35 34 33 32 31 31 30 30
55 55 55 55 55 55 55 54 54 54 54 53 53 53 53 53 53 54 55 56 57 58 59 61 61 62 62 62 61 61 60 59 58 57 58 58 60 61 62 63 63 62 61 60 57 54 51 48 45 42 40 39 38 38 37 37 36 36 36 35 34 33 32 31 31 30 30 31 31
57 58 58 58 58 58 58 58 58 57 57 56 56 55 55 54 54 55 55 56 57 57 58 59 60 60 61 61 61 61 61 61 61 61 62 62 63 63 64 63 63 61 59 57 54 50 47 44 42 41 40 39 38 38 38 37 36 36 34 33 33 32 32 31 31 32 32 33 33
58 59 60 61 61 62 61 61 61 60 60 60 59 59 58 58 57 57 57 57 58 59 59 60 61 61 61 62 62 63 63 63 64 64 64 64 65 64 64 63 61 59 56 53 50 47 44 42 41 40 40 39 39 38 37 36 35 34 33 33 32 33 33 33 33 33 34 34 34
57 59 60 62 63 63 63 63 63 63 63 63 63 62 62 62 61 61 61 61 61 61 62 62 62 62 63 64 64 65 65 65 65 66 65 65 65 64 62 60 57 54 51 48 46 44 42 41 40 40 39 39 38 37 36 35 34 34 34 34 34 34 34 34 34 34 34 35 35
55 57 58 59 61 62 62 63 63 63 63 63 63 64 64 64 64 64 64 63 63 63 63 63 64 64 65 66 66 67 67 67 66 66 65 64 62 60 57 55 52 50 47 45 44 42 42 41 41 40 39 38 37 36 36 36 36 36 36 36 36 35 35 35 35 35 35 36 37
51 53 54 55 56 57 58 59 59 60 60 60 61 62 64 65 65 65 65 65 65 65 65 65 65 66 66 66 67 67 67 67 66 64 62 60 58 55 53 50 48 47 45 44 43 42 42 41 41 40 39 38 37 37 37 37 37 38 38 37 37 36 36 35 36 36 36 37 38
46 47 49 49 51 51 52 53 54 55 55 56 57 59 60 62 64 65 65 66 66 65 65 65 66 66 66 66 66 66 65 64 62 60 58 56 53 52 50 48 47 46 45 44 43 43 42 42 41 40 39 38 38 38 38 39 39 39 38 38 37 37 37 37 37 37 38 39 39
41 42 43 44 45 46 47 48 48 49 49 50 52 54 56 59 61 63 64 65 65 65 65 65 66 66 66 65 64 63 61 60 58 56 54 53 51 50 49 48 47 46 46 45 44 43 42 42 41 40 40 40 40 40 40 40 40 40 39 39 39 38 38 38 39 39 40 41 42
39 40 40 41 42 42 43 43 44 44 45 46 48 50 53 55 58 60 62 63 64 64 65 65 65 65 64 63 61 60 58 57 55 54 53 52 51 50 49 49 48 47 46 45 44 43 43 42 42 41 41 41 42 42 42 42 41 41 41 40 40 40 40 40 41 42 42 43 44
38 39 40 40 41 41 41 41 42 42 43 44 45 47 49 52 54 56 58 60 61 62 63 64 63 63 62 61 59 58 57 56 55 54 53 52 52 51 50 49 48 47 46 45 44 43 43 43 43 43 43 43 43 43 43 43 43 42 42 41 41 42 42 42 43 44 45 46 46
38 39 40 41 41 42 42 42 42 42 43 43 44 45 46 48 50 52 54 56 57 58 60 60 60 60 60 59 58 58 57 56 55 54 53 52 52 51 50 49 48 47 46 45 44 44 44 44 44 44 44 45 45 44 44 44 43 43 42 42 43 43 44 44 45 46 47 47 48
38 40 41 42 43 43 43 43 43 43 43 43 44 45 45 46 47 48 50 52 53 54 56 56 57 57 57 56 56 56 55 55 54 53 52 52 51 50 49 48 47 46 45 45 44 45 45 45 45 46 46 46 46 46 45 44 44 44 44 44 44 45 46 46 47 47 48 48 48
39 40 42 43 44 44 44 44 44 44 44 44 45 45 45 46 46 47 48 49 50 51 52 53 53 53 53 53 53 53 53 52 52 51 51 50 50 49 49 48 47 46 45 45 45 46 46 46 47 47 47 47 47 46 46 45 45 45 45 46 46 47 47 47 48 48 48 48 48
41 42 43 45 45 46 46 46 45 45 45 45 45 46 46 46 47 47 47 48 48 49 49 50 50 50 50 50 50 50 50 50 50 50 50 50 49 49 48 47 47 46 46 46 46 47 48 48 48 48 48 48 47 47 46 46 46 46 46 47 48 48 48 48 49 49 49 48 48
43 44 45 46 47 48 48 48 47 47 46 46 46 47 47 48 48 48 48 48 48 49 49 49 49 49 49 49 49 49 49 49 50 50 50 50 49 49 48 48 47 47 47 47 48 48 48 49 49 49 48 49 48 47 47 46 46 47 48 48 49 49 49 49 50 49 49 49 50
46 46 46 47 49 50 50 50 49 49 48 48 48 49 49 49 50 50 50 50 50 50 50 50 50 49 49 49 49 49 50 50 50 50 50 50 50 49 49 49 48 48 48 48 49 49 49 50 49 49 49 49 49 48 47 47 48 48 49 49 50 50 50 50 50 50 50 51 52
48 47 47 48 49 50 51 52 51 51 51 50 50 50 51 51 51 51 52 52 52 52 52 52 51 51 51 51 51 51 51 51 51 51 51 51 51 50 50 50 49 49 49 49 50 50 50 50 50 50 50 49 49 48 48 48 49 49 50 50 51 50 50 50 50 51 51 53 54
49 48 48 48 49 50 51 52 53 53 53 52 52 52 53 53 53 53 53 54 54 54 54 54 54 53 53 53 53 53 53 52 52 52 52 52 52 51 51 51 51 50 50 50 50 51 51 50 50 50 49 49 49 49 49 49 50 50 50 50 50 50 50 50 50 52 53 55 56